[[{"header":{"parameterUnit":"m.s-1","parameterCategory":1,"la1":30.2991,"la2":30.254,"lo1":-89.0895,"lo2":-89.0444,"dy":0.0017,"dx":0.0017,"nx":28,"ny":28,"refTime":"2024-08-24T03:00:00:Z","depth":0,"parameterNumber":2,"parameterNumberName":"U-component_of_WINDS"},"data":[0,0,0,0,0,0,0,0,0,0,0,0,0,0,0,0,0,0,0,0,0,0,0,0,0,0,0,0,0,0,0,0,0,0,0,0,0,0,0,0,0,0,0,0,0,0,0,0,0,0,0,0,0,0,0,0,0,0,-5.8161,-5.8162,0,-5.8282,-5.8283,-5.8284,-5.8115,-5.8109,-5.8103,-5.8097,-5.8223,-5.8232,-5.8241,0,0,0,0,0,0,0,0,0,0,0,0,0,-5.7785,-5.7793,-5.8161,-5.8162,-5.8164,-5.8281,-5.8283,-5.8285,-5.8116,-5.8109,-5.8101,-5.8095,-5.822,-5.8231,-5.8241,0,0,0,0,0,0,0,0,0,0,0,0,0,-5.7931,-5.7795,-5.816,-5.8094,-5.8089,-5.8281,-5.8283,-5.8285,-5.8118,-5.8109,-5.8099,-5.8091,-5.8217,-5.823,-5.8243,-5.8507,0,0,-5.8284,-5.829,0,0,0,0,0,0,0,0,-5.7923,-5.7945,-5.8102,-5.8099,-5.8094,-5.8174,-5.8196,-5.836,-5.812,-5.8107,-5.8097,-5.8087,-5.8214,-5.8227,-5.827,-5.8513,-5.8518,-5.8285,-5.8293,-5.8299,-5.8303,0,0,0,0,0,0,0,-5.7913,-5.7939,-5.8208,-5.8104,-5.8099,-5.8058,-5.8069,-5.8227,-5.821,-5.8107,-5.8095,-5.8112,-5.821,-5.8257,-5.8272,-5.852,-5.8285,-5.8297,-5.8305,-5.831,-5.8985,-5.8994,0,0,0,0,0,0,-5.7911,-5.7932,-5.8205,-5.8212,-5.7984,-5.8072,-5.8084,-5.8157,-5.8208,-5.8206,-5.8119,-5.8103,-5.8239,-5.8256,-5.8275,-5.8587,-5.8299,-5.8312,-5.8319,-5.8975,-5.8987,-5.8998,0,0,0,0,0,0,-5.7903,-5.7937,-5.82,-5.8069,-5.8099,-5.8088,-5.8172,-5.8164,-5.8211,-5.8217,-5.8213,-5.8171,-5.8232,-5.8256,-5.845,-5.8589,-5.8318,-5.833,-5.8964,-5.8979,-5.8992,-5.9214,0,0,0,0,0,0,-5.7893,-5.7935,-5.8035,-5.8072,-5.8107,-5.8373,-5.818,-5.8173,-5.8235,-5.8215,-5.8264,-5.8263,-5.8227,-5.8431,-5.8464,-5.8603,-5.834,-5.8951,-5.897,-5.8988,-5.9194,-5.9235,-5.9269,0,0,0,0,0,-5.7881,-5.8093,-5.8041,-5.8075,-5.8231,-5.8381,-5.8401,-5.8355,-5.8247,-5.8347,-5.835,-5.8262,-5.8569,-5.8452,-5.8488,-5.8633,-5.8942,-5.8965,-5.8986,-5.9178,-5.9227,-5.9268,0,0,0,0,0,0,-5.8073,-5.8097,-5.8039,-5.827,-5.8325,-5.8352,-5.8478,-5.8408,-5.8495,-5.8473,-5.8412,-5.8425,-5.8633,-5.8652,-5.8522,-5.8891,-5.8737,-5.8768,-5.8871,-5.8918,-5.8954,-5.8946,-5.8352,0,0,0,0,0,-5.8143,-5.8262,-5.8276,-5.8479,-5.8509,-5.849,-5.8553,-5.8512,-5.8567,-5.8589,-5.8607,-5.8664,-5.8773,-5.8846,-5.8947,-5.9196,-5.9204,-5.9313,-5.9351,-5.9381,-5.9409,-5.9542,-5.9591,-5.9071,-5.907,-5.907,0,0,-5.8287,-5.8315,-5.8394,-5.8518,-5.8556,-5.8681,-5.851,-5.865,-5.8743,-5.8611,-5.8795,-5.881,-5.8869,-5.9092,-5.9191,-5.9115,-5.9554,-5.941,-5.9434,-5.9445,-5.957,-5.9619,-5.9663,-5.9086,-5.9083,-5.908,0,0,-5.8615,-5.8648,-5.882,-5.8861,-5.892,-5.8905,-5.8947,-5.8985,-5.899,-5.9174,-5.9077,-5.9187,-5.9376,-5.9422,-5.9471,-5.9816,-5.9738,-5.985,-6.0046,-6.0177,-6.0218,-6.0254,-6.0377,-6.0423,-5.9877,-5.9878,-5.9878,0,-5.8788,-5.8972,-5.8917,-5.9065,-5.9122,-5.9008,-5.9182,-5.9224,-5.9314,-5.9357,-5.9269,-5.9504,-5.9536,-5.9768,-5.9852,-5.9895,-5.9941,-5.9845,-6.0216,-6.0252,-6.0285,-6.0402,-6.0449,-5.9891,-5.989,-5.9888,-5.9887,0,-5.9182,-5.9312,-5.9443,-5.9532,-5.9604,-5.9765,-5.9734,-5.9814,-5.9767,-5.9762,-5.995,-5.9985,-6.009,-6.0142,-6.0098,-6.0369,-6.0319,-6.0226,-6.007,-6.0349,-6.0458,-6.0502,-5.991,-5.9905,-5.9901,-5.9898,0,0,-5.9635,-5.9691,-5.974,-5.9779,-5.9836,-5.9935,-6.009,-6.0192,-6.0262,-6.0328,-6.0456,-6.0619,-6.0532,-6.0587,-6.0547,-6.0662,-6.0934,-6.0554,-6.0554,-6.0624,-6.1235,-6.1305,-6.1358,-6.0882,-6.089,-6.0897,-6.123,0,-5.9962,-6.0229,-6.0184,-6.0444,-6.0563,-6.0456,-6.0591,-6.064,-6.064,-6.0741,-6.074,-6.0856,-6.0733,-6.0765,-6.0874,-6.0878,-6.1056,-6.0853,-6.1002,-6.1008,-6.0991,-6.1415,-6.149,-6.1803,-6.1272,-6.1279,-6.1284,0,-6.038,-6.046,-6.0732,-6.0769,-6.0818,-6.094,-6.103,-6.1128,-6.1182,-6.1173,-6.1236,-6.1174,-6.1329,-6.1171,-6.1384,-6.1247,-6.1305,-6.1316,-6.1327,-6.1339,-6.1164,-6.144,-6.1901,-6.1949,-6.1351,-6.1346,-6.1341,0,-6.0684,-6.086,-6.1045,-6.1081,-6.113,-6.1218,-6.1243,-6.1287,-6.1352,-6.1431,-6.1473,-6.1569,-6.1623,-6.1699,-6.1666,-6.1554,-6.1885,-6.1724,-6.1883,-6.1884,-6.1958,-6.1954,-6.2436,-6.1995,-6.1995,-6.1994,-6.1993,0,-6.1054,-6.1225,-6.1182,-6.1296,-6.1484,-6.143,-6.1618,-6.1629,-6.167,-6.1785,-6.1698,-6.1807,-6.1756,-6.1862,-6.1837,-6.2018,-6.2042,-6.204,-6.2031,-6.2048,-6.2049,-6.2086,-6.2063,-6.2006,-6.2003,-6.2001,-6.1999,0,-6.1426,-6.1404,-6.1599,-6.1628,-6.164,-6.1777,-6.1802,-6.1909,-6.1901,-6.2047,-6.2079,-6.2067,-6.2188,-6.2162,-6.2294,-6.2277,-6.2504,-6.2468,-6.2486,-6.2477,-6.2637,-6.2623,-6.3161,-6.3229,-6.2744,-6.2748,-6.2752,0,-6.1664,-6.1792,-6.1836,-6.1906,-6.1937,-6.2052,-6.2117,-6.2069,-6.2141,-6.2212,-6.2311,-6.2423,-6.251,-6.2708,-6.2712,-6.2813,-6.2779,-6.296,-6.2793,-6.2806,-6.2782,-6.2775,-6.2788,-6.2994,-6.2999,-6.3004,-6.3007,0,-6.2089,-6.2072,-6.2169,-6.2264,-6.2344,-6.2416,-6.2479,-6.2542,-6.2499,-6.2585,-6.2706,-6.2774,-6.2909,-6.3022,-6.3115,-6.314,-6.3069,-6.306,-6.3102,-6.3121,-6.3126,-6.3126,-6.2576,-6.3048,-6.3044,-6.3041,-6.3039,-6.3037,-6.2401,-6.2511,-6.2558,-6.2669,-6.2712,-6.2774,-6.2876,-6.288,-6.2981,-6.3086,-6.3052,-6.3191,-6.3242,-6.3359,-6.3396,-6.3504,-6.3436,-6.3497,-6.3513,-6.3529,-6.3548,-6.3108,-6.3521,-6.352,-6.3519,-6.3518,-6.3517,0,-6.2822,-6.2847,-6.295,-6.3042,-6.313,-6.3053,-6.3119,-6.3198,-6.3321,-6.3374,-6.3462,-6.3602,-6.3711,-6.3724,-6.3827,-6.3911,-6.3881,-6.394,-6.3933,-6.3941,-6.3603,-6.3557,-6.3963,-6.3963,-6.3963,-6.3963,-6.3963,-6.3962,-6.3051,-6.3232,-6.3221,-6.3422,-6.3445,-6.3581,-6.3625,-6.3682,-6.3724,-6.3884,-6.3974,-6.3981,-6.4018,-6.4123,-6.422,-6.422,-6.4263,-6.4335,-6.4324,-6.4009,-6.3964,-6.3922,-6.3878,-6.4345,-6.4345,-6.4652,-6.4654,-6.4657]},{"header":{"parameterUnit":"m.s-1","parameterCategory":1,"la1":30.2991,"la2":30.254,"lo1":-89.0895,"lo2":-89.0444,"dy":0.0017,"dx":0.0017,"nx":28,"ny":28,"refTime":"2024-08-24T03:00:00:Z","depth":0,"parameterNumber":3,"parameterNumberName":"V-component_of_WINDS"},"data":[0,0,0,0,0,0,0,0,0,0,0,0,0,0,0,0,0,0,0,0,0,0,0,0,0,0,0,0,0,0,0,0,0,0,0,0,0,0,0,0,0,0,0,0,0,0,0,0,0,0,0,0,0,0,0,0,0,0,-2.5937,-2.5937,0,-2.5935,-2.5935,-2.5935,-2.5906,-2.5906,-2.5905,-2.5904,-2.5902,-2.5902,-2.5903,0,0,0,0,0,0,0,0,0,0,0,0,0,-2.5913,-2.5913,-2.5937,-2.5937,-2.5937,-2.5935,-2.5935,-2.5935,-2.5907,-2.5906,-2.5905,-2.5904,-2.5902,-2.5902,-2.5903,0,0,0,0,0,0,0,0,0,0,0,0,0,-2.5918,-2.5913,-2.5937,-2.5922,-2.5921,-2.5935,-2.5935,-2.5935,-2.5907,-2.5906,-2.5905,-2.5904,-2.5901,-2.5902,-2.5903,-2.5931,0,0,-2.5906,-2.5906,0,0,0,0,0,0,0,0,-2.5918,-2.5919,-2.5924,-2.5923,-2.5922,-2.592,-2.5926,-2.5933,-2.5907,-2.5912,-2.5904,-2.5903,-2.5909,-2.5909,-2.5911,-2.593,-2.593,-2.5906,-2.5907,-2.5907,-2.5907,0,0,0,0,0,0,0,-2.5918,-2.5919,-2.5936,-2.5925,-2.5923,-2.5915,-2.5915,-2.5927,-2.5916,-2.5912,-2.591,-2.591,-2.5908,-2.591,-2.5911,-2.593,-2.5906,-2.5907,-2.5907,-2.5908,-2.5969,-2.5971,0,0,0,0,0,0,-2.5919,-2.5919,-2.5936,-2.5936,-2.5917,-2.5916,-2.5916,-2.5922,-2.5916,-2.5914,-2.5911,-2.5908,-2.5909,-2.591,-2.591,-2.594,-2.5907,-2.5908,-2.5908,-2.5968,-2.597,-2.5971,0,0,0,0,0,0,-2.5919,-2.5921,-2.5936,-2.5927,-2.5928,-2.5918,-2.5925,-2.5922,-2.5925,-2.5916,-2.5913,-2.5915,-2.5908,-2.5909,-2.5925,-2.594,-2.5908,-2.5909,-2.5967,-2.5969,-2.597,-2.6002,0,0,0,0,0,0,-2.5919,-2.5921,-2.5932,-2.5927,-2.5929,-2.5952,-2.5926,-2.5923,-2.5926,-2.5923,-2.5919,-2.5918,-2.5907,-2.5924,-2.5926,-2.5941,-2.591,-2.5966,-2.5968,-2.597,-2.5999,-2.6004,-2.6008,0,0,0,0,0,-2.5918,-2.5942,-2.5933,-2.5935,-2.5942,-2.5953,-2.5953,-2.5942,-2.5928,-2.5938,-2.5932,-2.5918,-2.5938,-2.5926,-2.5928,-2.5943,-2.5965,-2.5967,-2.597,-2.5997,-2.6003,-2.6008,0,0,0,0,0,0,-2.5949,-2.5941,-2.5931,-2.5954,-2.5954,-2.5948,-2.5961,-2.5949,-2.5953,-2.595,-2.5934,-2.5934,-2.5952,-2.5949,-2.5936,-2.5968,-2.5949,-2.5952,-2.5969,-2.5975,-2.5979,-2.5979,-2.5911,0,0,0,0,0,-2.5959,-2.5968,-2.596,-2.5981,-2.5982,-2.5971,-2.5975,-2.5966,-2.5965,-2.5965,-2.596,-2.596,-2.5966,-2.597,-2.5976,-2.5999,-2.5996,-2.601,-2.6015,-2.6018,-2.6021,-2.6031,-2.6036,-2.5979,-2.5979,-2.5979,0,0,-2.5979,-2.5975,-2.5982,-2.5987,-2.5986,-2.5995,-2.5972,-2.5983,-2.5989,-2.5967,-2.5981,-2.5978,-2.5976,-2.5995,-2.6003,-2.5993,-2.6036,-2.6022,-2.6025,-2.6025,-2.6034,-2.6039,-2.6044,-2.5981,-2.598,-2.598,0,0,-2.6019,-2.6018,-2.6035,-2.6034,-2.6032,-2.6025,-2.6029,-2.6024,-2.602,-2.6034,-2.6017,-2.6024,-2.6036,-2.6034,-2.6035,-2.6073,-2.6059,-2.6075,-2.6099,-2.6108,-2.6113,-2.6117,-2.6128,-2.6133,-2.6078,-2.6078,-2.6078,0,-2.6044,-2.6058,-2.6045,-2.6056,-2.6058,-2.6038,-2.6054,-2.6053,-2.6054,-2.6055,-2.6044,-2.6056,-2.6054,-2.6071,-2.608,-2.6083,-2.6085,-2.6075,-2.6113,-2.6117,-2.6121,-2.6131,-2.6136,-2.608,-2.6079,-2.6079,-2.6079,0,-2.6087,-2.6097,-2.611,-2.611,-2.6113,-2.6127,-2.6115,-2.612,-2.611,-2.6103,-2.6117,-2.6113,-2.6116,-2.612,-2.6111,-2.6136,-2.6129,-2.6116,-2.6096,-2.6128,-2.6138,-2.6142,-2.6082,-2.6082,-2.6081,-2.6081,0,0,-2.6148,-2.6139,-2.6144,-2.6143,-2.6139,-2.6146,-2.6158,-2.6161,-2.6164,-2.6165,-2.6173,-2.6182,-2.6169,-2.617,-2.6161,-2.617,-2.6197,-2.6155,-2.6155,-2.6161,-2.6222,-2.6231,-2.6236,-2.6188,-2.6189,-2.619,-2.6222,0,-2.6186,-2.6206,-2.6194,-2.6215,-2.6223,-2.6203,-2.6213,-2.6211,-2.6204,-2.6209,-2.6202,-2.6208,-2.6192,-2.6192,-2.62,-2.6192,-2.6209,-2.619,-2.6195,-2.6195,-2.6195,-2.6242,-2.6252,-2.6282,-2.6226,-2.6226,-2.6227,0,-2.6233,-2.6234,-2.6257,-2.6249,-2.6251,-2.6261,-2.6261,-2.6266,-2.6263,-2.6258,-2.6258,-2.6245,-2.6255,-2.6236,-2.6248,-2.6236,-2.6237,-2.6233,-2.6234,-2.6233,-2.6212,-2.6241,-2.6292,-2.6296,-2.6233,-2.6233,-2.6232,0,-2.6273,-2.628,-2.6294,-2.6294,-2.6286,-2.6292,-2.6289,-2.6285,-2.6287,-2.6287,-2.6287,-2.6289,-2.629,-2.6291,-2.6278,-2.6266,-2.6291,-2.6272,-2.6286,-2.6286,-2.6291,-2.6291,-2.6342,-2.6295,-2.6295,-2.6294,-2.6294,0,-2.6315,-2.6329,-2.6311,-2.632,-2.6334,-2.6319,-2.6334,-2.6328,-2.6324,-2.633,-2.6313,-2.6319,-2.6303,-2.6307,-2.6297,-2.6308,-2.6309,-2.6303,-2.63,-2.6304,-2.6305,-2.6304,-2.6301,-2.6296,-2.6295,-2.6295,-2.6295,0,-2.6362,-2.6351,-2.6364,-2.6355,-2.6353,-2.6364,-2.6355,-2.6362,-2.6354,-2.6362,-2.6363,-2.635,-2.6353,-2.6341,-2.6343,-2.6336,-2.6351,-2.6346,-2.6352,-2.635,-2.6364,-2.6362,-2.6415,-2.6421,-2.6371,-2.6372,-2.6372,0,-2.639,-2.64,-2.6391,-2.6394,-2.6391,-2.6396,-2.6397,-2.6383,-2.6385,-2.638,-2.6387,-2.6389,-2.639,-2.6396,-2.6386,-2.6387,-2.638,-2.6399,-2.638,-2.6383,-2.6378,-2.6377,-2.6377,-2.6402,-2.6403,-2.6403,-2.6404,0,-2.6439,-2.6432,-2.6435,-2.6435,-2.6437,-2.6437,-2.6435,-2.6438,-2.6422,-2.6425,-2.6428,-2.6428,-2.6429,-2.6431,-2.6429,-2.6425,-2.6411,-2.641,-2.6413,-2.6416,-2.6419,-2.6416,-2.6361,-2.6408,-2.6408,-2.6408,-2.6407,-2.6407,-2.6476,-2.6483,-2.6477,-2.648,-2.6477,-2.6475,-2.648,-2.6472,-2.6475,-2.6474,-2.6465,-2.647,-2.6464,-2.646,-2.6457,-2.646,-2.6451,-2.6456,-2.6457,-2.6458,-2.6459,-2.6419,-2.646,-2.6459,-2.6459,-2.6459,-2.6459,0,-2.6522,-2.6517,-2.652,-2.6518,-2.6519,-2.6506,-2.6503,-2.6505,-2.6509,-2.6505,-2.6506,-2.6509,-2.651,-2.65,-2.6499,-2.6503,-2.6496,-2.6503,-2.6502,-2.6501,-2.6468,-2.6465,-2.6508,-2.6508,-2.6508,-2.6508,-2.6508,-2.6508,-2.6547,-2.6557,-2.655,-2.6558,-2.6553,-2.6557,-2.6556,-2.6553,-2.655,-2.6553,-2.6554,-2.6547,-2.654,-2.6539,-2.6539,-2.6536,-2.6536,-2.6544,-2.6539,-2.6508,-2.6503,-2.6499,-2.6496,-2.6545,-2.6545,-2.6571,-2.6571,-2.6571]}]]